Location: Camerons Lookout
(40.9833°S, 175.9333°E)
Time: 00:14:19
(UTC+00:00)

Okean 2 Rocket - Pass Details

Date: 14 January 2026
Orbit: 611 x 634 km, 82.5° (Epoch: 16 February)

Event Time Altitude Azimuth Distance (km) Brightness Sun altitude
Exits shadow 11:11:31 59° 133° (SE) 725 3.4 -25.4°
Drops below altitude 10° 11:15:18 10° 167° (SSE) 2,006 6.4 -25.7°
Sets 11:17:33 0° 169° (S) 2,918 7.5 -25.8°
